Skip Page Navigation
NASA JPL Caltech
NASA Logo - Jet Propulsion Laboratory + View the NASA Portal
+ Center for Near-Earth Object Studies
JPL Home Earth Solar System Stars & Galaxies Technology
JPL Solar System Dynamics
BODIES ORBITS EPHEMERIDES TOOLS PHYSICAL DATA DISCOVERY FAQ SITE MAP
IMPORTANT: The SSD Announcement email list is now available. Major changes are coming in the near future, including possible hostname and/or URL changes. To be notified of such changes, subscribe to this email list.

Please visit this page for more details.


JPL Small-Body Database Browser
Search: [ help ]  
185861 (2000 GU150)
Classification: Outer Main-belt Asteroid          SPK-ID: 2185861
Ephemeris | Orbit Diagram | Orbital Elements | Mission Design | Physical Parameters | Discovery Circumstances ]

[ show orbit diagram ]
Orbital Elements at Epoch 2459000.5 (2020-May-31.0) TDB
Reference: JPL 20 (heliocentric ecliptic J2000)
 Element Value Uncertainty (1-sigma)   Units 
e .1482270623315403 4.9783e-08  
a 3.978031258141402 6.4033e-08 au
q 3.388379370884061 1.9672e-07 au
i 12.47957210104208 5.3223e-06 deg
node 195.554445942357 2.3074e-05 deg
peri 301.5243750216163 2.7791e-05 deg
M 240.6480344352706 1.5894e-05 deg
tp 2459961.288483552681
(2023-Jan-16.78848355)
0.00013887 TDB
period 2898.015566332489
7.93
6.9972e-05
1.916e-07
d
yr
n .1242229352327423 2.9994e-09 deg/d
Q 4.567683145398743 7.3524e-08 au
  Orbit Determination Parameters
   # obs. used (total)      399  
   data-arc span      7130 days (19.52 yr)  
   first obs. used      2000-03-25  
   last obs. used      2019-10-02  
   planetary ephem.      DE431  
   SB-pert. ephem.      SB431-N16  
   condition code      0  
   norm. resid. RMS      .58972  
   source      ORB  
   producer      Otto Matic  
   solution date      2019-Nov-07 20:53:11  

Additional Information
 Earth MOID = 2.42391 au 
 Jupiter MOID = .698597 au 
 T_jup = 2.997 
[ show covariance matrix ]

Ephemeris | Orbit Diagram | Orbital Elements | Mission Design | Physical Parameters | Discovery Circumstances ]

Physical Parameter Table
Parameter Symbol Value Units Sigma Reference Notes
absolute magnitude H 14.5   n/a MPO418003  

185861 (2000 GU150)          Discovered 2000-Apr-05 by LINEAR at Socorro
Reference: 20080520/Numbers.arcLast Updated: 2008-05-22
Ephemeris | Orbit Diagram | Orbital Elements | Mission Design | Physical Parameters | Discovery Circumstances ]
ABOUT SSD CREDITS/AWARDS PRIVACY/COPYRIGHT GLOSSARY LINKS
FirstGov 2020-Feb-18 22:57 UT
(server date/time)  
NASA Home Page
Site Manager:   Ryan S. Park
Webmaster  Alan B. Chamberlin